METEOR 2-5 DEB, 28974

Orbit data source: Space-Track

METEOR 2-5 DEB, 28974 is space debris in LEO originally from a launch on Wed, 31 Oct 1979 UTC launched from the Plesetsk Missile And Space Complex (PKMTR). Debris objects in space refer to the collection of defunct objects orbiting the Earth. Examples of debris include non-operational satellites, rocket bodies, and fragments generated from explosions, collisions, or faulty payload assembly.

Loading next visibility...
Identifier
28974, 1979-095K
Orbit
LEO
Country
Flag of CISCIS
Related business
Manufacturer
Unknown
Mission
Spacecraft
Bus & Motor
Unknown
Mass
Unknown
Launch date (UTC)
1979-10-31 (46 years ago)
Launch vehicle
Unknown
Launch site
Plesetsk Missile And Space Complex (PKMTR)
Object type
Payload
Rocket body
Debris
Shape & HBR
Unknown shape, 0.1 m
Radar Cross Section
Small (<0.1 m²)

Expand to show TLE details & history
Last TLE update: 3 days ago

TLE from 3 days ago
0 METEOR 2-5 DEB
1 28974U 79095K   25291.84816058  .00010614  00000-0  30555-2 0  9991
2 28974  81.1977 341.6614 0012352 278.1769  81.8019 14.44652987 15365
Epoch: 2025-10-18T20:21Z
TLE epoch observation values (Epoch: 2025-10-18T20:21:21.074Z)
Latitude
-0.00006°
Longitude
8.75029°
Altitude
744.867 km
Speed
7.483 km/s
True Right ascension
22h 46m 38s
True Declination
0° 00' 00"
Sunlit
Object was in full shadow at epoch
Visualization orbit readout
Latitude
Unknown
Longitude
Unknown
Altitude
Unknown
Speed
Unknown
Apparent Right ascension
Unknown
Apparent Declination
Unknown
Sunlit
N/A
Visualization observer readout
Local Sidereal Time
08:35:02
Azimuth
Unknown
Elevation
Unknown
Doppler factor
Unknown
Orbital elements
Apogee altitude
749.089 km
Perigee altitude
731.504 km
Semi-major axis
7,118.433 km
Eccentricity
0.00124
Inclination
81.1977°
RAAN
341.6614°
Arg. of periapsis
278.1769°
True anomaly
81.94203°
Mean anomaly
81.8019°
Eccentric anomaly
81.87196°
Mean motion
3.61382 °/min
Orbital period
99.62 mins
BSTAR
0.0030555
Loading maneuver chart data...
Computing Atmospheric mass density...

Documentation

Showing up to 5 results
|